Wind_Speed
6 1 7 6 5 9 11 11 12 16 12 17 20 23 22 17 13 13 14 19 19 19 18 13 13 18 19 26 21 19 19 17 17 18 19 20 21 21 24 27 27 28 30 32
9 8 6 6 8 10 7 8 12 14 16 17 18 17 13 9 16 19 21 25 26 27 23 19 21 19 17 16 24 26 21 18 15 16 18 23 25 26 28 30 32 34 35 34
6 3 4 6 9 5 7 9 8 11 17 17 16 5 18 20 9 11 16 23 23 23 26 26 23 21 17 16 14 20 24 20 18 19 22 25 25 26 28 32 34 34 34 37
6 2 2 1 6 5 6 9 9 11 15 10 15 5 18 21 21 12 10 5 11 4 10 9 6 15 13 13 12 14 18 22 21 21 23 24 27 29 32 35 34 35 36 33
4 4 4 8 5 8 5 9 10 13 9 2 14 4 17 17 25 24 21 21 14 10 5 4 1 4 6 9 9 11 15 17 18 23 26 27 30 34 36 38 35 37 36 41
3 3 6 12 9 7 9 11 12 6 5 2 13 9 12 18 20 20 21 17 15 14 10 7 6 5 4 7 9 10 12 11 17 23 27 30 34 39 40 41 40 36 37 37
4 8 7 16 9 8 6 9 6 5 5 5 15 4 8 19 19 19 16 16 11 12 9 7 8 6 6 3 3 5 7 11 16 23 28 31 35 40 39 37 37 36 35 32
5 4 5 14 12 1 3 7 3 2 2 7 9 1 1 11 16 13 15 18 14 10 10 5 5 1 4 4 8 9 11 16 17 22 26 30 35 35 34 35 39 35 28 24
4 0 8 7 12 4 5 10 6 3 4 3 6 8 14 5 13 13 10 14 16 15 8 6 7 3 5 9 8 14 16 14 18 22 24 24 29 32 32 34 31 23 22 22
5 7 3 8 5 7 9 11 7 6 1 3 5 10 11 15 13 13 14 11 10 10 9 9 9 12 16 17 15 17 19 22 25 25 24 25 28 32 33 34 24 22 22 25
1 7 10 10 9 11 11 10 5 4 2 4 1 1 6 14 16 13 14 12 10 12 13 14 16 18 19 19 18 18 21 26 28 29 22 12 25 28 30 29 21 24 23 25
5 5 8 11 11 8 5 2 6 4 4 4 4 11 9 15 20 20 18 17 15 16 17 17 19 21 23 22 22 22 25 30 33 40 44 52 30 46 43 26 26 22 25 25
8 5 5 3 3 2 3 9 14 16 12 13 5 7 13 34 26 24 24 22 21 19 18 18 18 20 24 25 22 21 26 31 33 36 36 42 50 20 13 15 22 26 31 29
13 8 10 10 10 14 17 16 15 9 8 11 17 24 20 29 28 26 23 23 23 20 19 20 22 23 24 25 25 23 29 31 27 29 35 32 23 8 4 17 26 24 20 19
8 9 11 12 15 17 13 14 16 18 21 19 16 17 17 20 23 20 20 21 22 23 22 24 24 23 23 21 19 16 18 21 23 22 21 25 12 7 16 16 29 20 18 20
11 8 11 15 15 17 22 25 25 27 16 16 14 12 16 15 12 14 18 20 22 22 23 22 19 15 14 15 18 20 22 20 21 22 17 15 13 16 13 18 27 17 18 20
16 13 13 9 11 14 18 19 13 14 14 9 8 5 5 8 13 16 15 14 15 17 19 20 20 19 18 18 17 19 19 21 22 24 20 12 7 7 9 16 19 17 18 21
16 15 13 10 16 3 5 4 8 6 8 13 11 7 7 9 13 15 16 17 19 22 24 24 27 25 22 18 17 20 21 22 21 23 18 20 21 18 18 17 14 16 20 23
9 10 8 5 6 13 13 7 5 10 14 13 13 15 18 18 20 20 23 25 24 20 20 21 18 19 19 18 17 18 21 25 21 23 21 22 25 22 19 16 15 19 23 27
9 10 10 7 4 4 1 6 11 16 15 11 11 15 19 19 20 22 23 27 30 30 33 26 20 19 19 17 19 21 19 31 22 20 20 21 21 17 16 16 18 21 25 29
11 9 13 14 10 7 16 20 22 14 11 13 16 18 21 22 26 30 33 34 32 34 34 34 28 36 33 23 25 26 25 27 29 16 16 16 9 8 14 17 19 22 29 29
13 7 7 4 6 8 12 13 11 17 19 21 22 24 27 28 28 27 28 30 32 33 40 38 37 29 19 24 25 28 19 26 28 18 13 5 7 9 15 19 20 27 29 28
10 7 7 8 13 24 24 25 28 31 30 29 32 33 36 36 35 36 38 38 39 41 39 42 37 27 25 31 31 28 17 20 24 12 8 8 12 16 15 19 23 28 28 27
20 20 21 24 26 31 36 36 36 35 34 37 40 42 42 45 46 48 45 45 46 43 40 38 38 34 29 35 32 24 15 19 20 10 11 12 10 13 18 20 24 26 25 27
30 31 34 34 29 29 29 29 30 32 34 36 36 39 40 39 38 36 36 33 30 27 26 30 33 29 27 31 29 17 16 18 16 14 15 13 17 14 15 19 23 25 26 29
24 22 24 28 27 28 28 25 25 28 29 29 30 30 26 24 24 25 26 24 24 26 24 23 22 21 22 23 23 15 13 13 14 14 11 22 20 7 14 21 23 23 27 29
Wind_Direction
220 12 86 73 18 344 336 338 339 7 354 346 343 324 323 313 311 299 285 281 277 273 274 258 243 261 273 268 255 257 246 247 253 260 270 269 273 277 282 282 279 275 273 274
129 105 73 22 12 355 338 341 353 0 356 348 339 331 14 339 285 280 275 277 277 276 269 261 245 254 254 248 264 257 264 259 260 263 274 277 281 281 279 277 277 278 280 284
164 135 25 8 12 14 349 339 337 338 342 338 340 59 12 18 325 292 280 275 281 281 275 272 253 240 250 265 268 269 267 269 274 273 272 279 292 290 292 285 284 286 286 285
186 247 309 66 16 23 32 345 335 331 333 350 18 308 6 11 26 27 12 302 284 267 338 344 276 223 259 275 285 281 275 272 283 294 297 295 299 299 293 291 285 282 281 286
212 217 295 307 333 341 346 336 319 322 337 352 20 1 9 16 20 22 34 41 31 13 332 309 283 211 241 237 235 241 281 276 284 290 298 298 301 297 290 292 291 289 281 285
306 336 40 353 282 285 313 333 319 326 19 9 2 9 23 24 16 16 16 21 43 47 50 28 18 357 358 237 264 268 280 282 288 291 294 298 299 292 292 296 296 288 281 286
22 105 60 15 355 229 315 332 340 7 8 241 334 352 49 41 26 8 7 8 7 12 19 18 8 359 353 330 272 274 282 282 290 288 291 294 294 289 290 293 290 288 285 297
11 115 47 1 10 140 345 5 26 287 269 290 326 310 291 3 21 11 15 16 334 328 324 306 315 252 336 291 303 287 276 277 285 293 295 290 286 285 288 296 295 289 289 294
348 8 338 36 37 41 47 19 11 297 310 318 323 354 350 312 335 351 4 358 360 360 319 320 264 285 275 307 305 288 288 302 300 303 305 299 295 291 292 306 300 288 286 286
270 297 332 358 346 339 14 355 345 344 324 299 304 329 6 345 1 14 17 7 0 348 338 312 306 293 280 277 282 285 286 303 300 297 303 307 299 297 303 309 297 286 285 291
253 271 289 321 333 336 338 341 326 292 273 173 296 195 37 9 354 343 340 342 330 319 318 310 310 311 314 311 300 278 288 287 290 288 284 309 350 337 319 309 296 285 286 289
267 282 288 318 324 332 341 43 17 16 318 300 251 265 250 319 321 317 322 325 323 321 316 315 313 313 311 310 306 297 287 294 295 298 300 309 355 326 300 295 293 286 286 289
300 298 317 272 264 251 270 309 313 306 295 271 240 260 292 304 306 307 311 315 317 316 310 308 306 303 301 303 300 290 288 296 293 308 318 330 345 340 316 310 299 295 286 284
303 289 277 273 281 279 290 300 303 307 285 289 278 294 299 301 304 310 312 311 312 311 306 303 302 300 297 297 297 291 290 296 308 320 330 338 342 47 13 358 340 301 302 306
305 279 272 269 283 292 291 291 291 292 296 277 294 289 289 289 294 300 302 308 310 307 300 302 303 307 312 319 320 300 303 305 305 321 336 334 331 357 355 356 333 321 316 311
314 296 289 286 285 286 291 287 290 293 269 255 279 270 281 294 302 304 300 299 303 299 296 298 303 318 336 337 334 313 309 308 309 316 324 343 344 314 345 347 328 306 309 310
306 305 307 289 298 288 289 298 286 280 283 309 301 287 287 293 291 291 299 311 315 315 316 314 318 318 324 340 354 323 316 308 301 304 304 311 326 334 307 306 298 304 310 311
290 292 288 279 294 234 280 296 296 292 317 321 307 301 295 283 293 291 295 300 300 298 301 308 308 306 308 318 341 330 322 304 298 293 294 289 289 297 307 303 298 311 310 310
302 286 249 251 239 284 287 269 269 307 312 311 293 296 303 304 301 302 304 305 310 306 300 296 299 310 297 303 308 321 321 316 301 297 287 282 285 298 308 297 307 314 313 315
291 307 247 231 236 234 282 259 270 292 297 291 308 315 312 306 305 308 312 313 312 314 319 305 293 305 313 321 333 310 303 305 304 291 293 292 289 294 291 302 319 318 318 321
302 287 266 264 252 257 259 261 269 291 291 283 297 301 300 299 303 307 309 308 307 309 314 314 310 307 303 315 315 316 306 304 304 312 306 303 292 282 308 324 319 325 327 327
292 286 286 272 265 264 277 287 289 291 291 293 289 291 293 295 295 296 299 297 300 306 310 313 310 300 306 308 301 317 301 303 307 311 313 301 294 302 329 325 327 328 327 324
280 258 276 285 276 292 303 300 293 296 293 287 285 283 282 283 286 289 293 294 295 299 300 304 307 296 307 311 313 312 293 294 298 312 285 253 298 301 326 325 327 328 327 322
284 286 285 288 291 292 294 294 292 290 287 282 278 278 278 282 286 288 287 286 288 291 293 293 293 297 290 308 308 306 283 280 289 283 267 271 299 277 313 316 325 328 325 324
288 293 294 297 296 291 290 289 291 291 290 290 287 286 288 287 287 288 294 301 303 306 306 297 298 300 306 299 305 297 278 275 287 294 259 285 270 286 314 329 329 329 327 329
303 305 298 296 299 296 299 299 297 297 301 303 300 296 296 294 292 296 298 296 295 300 308 303 306 301 298 301 307 286 279 270 302 276 287 282 265 303 334 328 328 326 329 331
Height
3169 3171 3172 3173 3173 3173 3172 3172 3172 3171 3170 3168 3166 3164 3164 3162 3161 3160 3160 3160 3160 3161 3161 3162 3163 3163 3164 3165 3166 3167 3169 3170 3171 3171 3172 3171 3171 3171 3170 3170 3169 3167 3165 3162
3172 3172 3173 3173 3173 3173 3172 3172 3171 3170 3169 3168 3165 3163 3162 3158 3157 3156 3156 3156 3155 3154 3154 3155 3156 3159 3160 3160 3161 3162 3165 3166 3168 3169 3168 3167 3167 3167 3166 3165 3163 3161 3159 3156
3171 3173 3173 3173 3173 3172 3172 3171 3170 3170 3168 3167 3164 3161 3160 3157 3153 3152 3151 3150 3150 3148 3148 3148 3150 3153 3156 3156 3156 3157 3160 3163 3164 3165 3164 3163 3162 3161 3161 3159 3157 3154 3153 3150
3172 3173 3173 3173 3173 3173 3172 3171 3169 3168 3167 3165 3164 3162 3159 3156 3153 3150 3149 3147 3146 3146 3145 3144 3145 3148 3152 3153 3152 3154 3156 3160 3160 3161 3158 3157 3155 3154 3153 3150 3147 3146 3146 3142
3172 3172 3173 3173 3174 3173 3173 3171 3169 3167 3164 3164 3162 3162 3160 3157 3153 3151 3149 3147 3146 3145 3145 3146 3146 3147 3147 3148 3150 3151 3152 3155 3156 3155 3153 3151 3148 3147 3145 3142 3139 3137 3137 3134
3172 3173 3174 3173 3172 3172 3172 3170 3168 3166 3164 3164 3162 3162 3161 3158 3156 3154 3152 3150 3149 3147 3147 3147 3147 3146 3145 3146 3147 3148 3150 3151 3151 3149 3147 3144 3141 3139 3135 3131 3127 3126 3123 3123
3171 3172 3173 3172 3170 3170 3171 3170 3168 3169 3168 3167 3162 3162 3162 3160 3159 3157 3155 3152 3151 3150 3149 3149 3148 3147 3146 3146 3146 3147 3148 3148 3146 3143 3141 3138 3135 3131 3128 3123 3120 3120 3117 3115
3172 3173 3173 3172 3171 3170 3170 3170 3171 3173 3173 3165 3161 3162 3162 3161 3160 3157 3156 3154 3152 3151 3150 3148 3149 3146 3147 3147 3147 3146 3145 3143 3140 3139 3137 3133 3129 3126 3123 3119 3114 3110 3109 3108
3172 3172 3173 3173 3171 3171 3170 3171 3171 3170 3168 3166 3163 3162 3161 3159 3157 3156 3155 3154 3152 3151 3149 3149 3148 3146 3147 3146 3145 3144 3142 3139 3136 3134 3129 3126 3123 3119 3117 3112 3106 3106 3105 3103
3172 3172 3171 3172 3172 3171 3171 3172 3171 3169 3170 3168 3163 3162 3161 3157 3155 3154 3153 3152 3151 3150 3149 3148 3147 3146 3144 3142 3140 3140 3138 3135 3129 3124 3122 3121 3118 3112 3111 3107 3103 3103 3102 3099
3172 3172 3172 3171 3170 3170 3170 3169 3169 3169 3168 3168 3169 3162 3160 3157 3155 3153 3152 3151 3150 3148 3147 3146 3145 3143 3141 3139 3137 3135 3132 3126 3121 3115 3111 3108 3107 3105 3102 3101 3099 3098 3098 3096
3171 3170 3170 3170 3169 3168 3168 3167 3167 3167 3168 3167 3166 3161 3157 3154 3153 3151 3150 3149 3148 3146 3144 3143 3142 3140 3137 3135 3133 3129 3124 3121 3118 3114 3109 3092 3094 3100 3101 3094 3093 3092 3091 3091
3170 3169 3169 3169 3170 3168 3167 3167 3166 3165 3163 3163 3164 3160 3156 3150 3151 3149 3146 3145 3144 3143 3141 3139 3136 3134 3132 3130 3127 3123 3119 3116 3113 3111 3108 3097 3083 3079 3084 3083 3085 3087 3084 3082
3168 3168 3168 3168 3167 3166 3166 3166 3163 3162 3160 3157 3157 3154 3154 3147 3147 3145 3143 3140 3138 3137 3135 3134 3132 3129 3127 3125 3121 3119 3115 3113 3110 3107 3102 3095 3087 3078 3081 3083 3082 3081 3079 3079
3166 3165 3164 3164 3163 3160 3160 3161 3159 3158 3156 3153 3152 3150 3147 3146 3143 3142 3140 3137 3135 3132 3130 3128 3126 3124 3121 3118 3115 3112 3110 3108 3104 3102 3098 3093 3088 3082 3082 3079 3080 3076 3075 3075
3163 3162 3161 3161 3160 3159 3156 3155 3154 3151 3148 3148 3147 3146 3144 3142 3141 3141 3138 3136 3133 3130 3127 3124 3121 3119 3117 3114 3112 3109 3106 3104 3102 3096 3094 3091 3084 3081 3079 3079 3079 3076 3073 3072
3159 3158 3157 3155 3155 3154 3152 3149 3147 3146 3145 3145 3144 3144 3142 3141 3140 3139 3136 3134 3131 3128 3125 3122 3118 3115 3113 3110 3107 3106 3102 3100 3097 3093 3089 3088 3083 3080 3078 3076 3075 3072 3071 3069
3155 3155 3155 3152 3151 3151 3147 3146 3145 3144 3144 3143 3141 3140 3140 3138 3136 3135 3133 3131 3129 3126 3124 3121 3117 3114 3110 3107 3106 3102 3098 3096 3092 3088 3085 3084 3082 3078 3075 3072 3070 3068 3066 3065
3152 3152 3151 3150 3149 3147 3146 3144 3144 3142 3142 3141 3140 3139 3138 3137 3134 3132 3130 3128 3125 3122 3119 3116 3112 3108 3105 3102 3100 3097 3094 3092 3086 3082 3080 3080 3077 3075 3072 3069 3066 3066 3064 3061
3150 3150 3150 3148 3148 3146 3144 3143 3142 3140 3138 3136 3136 3135 3133 3132 3130 3130 3127 3125 3123 3121 3119 3116 3112 3106 3104 3100 3095 3092 3090 3089 3082 3078 3075 3074 3072 3071 3068 3066 3065 3063 3061 3057
3147 3146 3146 3145 3144 3142 3141 3139 3139 3139 3140 3134 3132 3130 3128 3126 3125 3122 3120 3119 3116 3113 3111 3110 3107 3102 3098 3094 3091 3086 3084 3081 3077 3074 3072 3069 3067 3067 3065 3064 3062 3059 3055 3051
3145 3144 3143 3143 3142 3139 3136 3137 3139 3137 3133 3130 3129 3127 3124 3121 3120 3118 3115 3112 3110 3106 3104 3102 3099 3096 3092 3088 3084 3081 3078 3076 3072 3070 3068 3066 3066 3064 3062 3060 3057 3054 3051 3046
3143 3143 3143 3144 3140 3135 3133 3133 3131 3129 3128 3126 3123 3121 3117 3114 3113 3111 3108 3105 3103 3100 3097 3094 3092 3091 3088 3081 3077 3073 3072 3070 3068 3067 3065 3062 3063 3060 3058 3056 3054 3051 3047 3043
3137 3138 3136 3135 3134 3130 3128 3125 3122 3119 3117 3115 3113 3109 3107 3104 3103 3100 3099 3096 3093 3092 3087 3083 3080 3079 3078 3075 3070 3067 3066 3064 3064 3061 3061 3060 3059 3056 3055 3054 3051 3048 3043 3039
3132 3131 3128 3125 3124 3119 3120 3115 3113 3109 3107 3104 3103 3100 3098 3094 3091 3089 3087 3086 3083 3081 3078 3075 3072 3071 3068 3066 3063 3061 3060 3060 3060 3057 3057 3057 3054 3054 3051 3049 3046 3043 3039 3033
3126 3123 3120 3115 3115 3111 3110 3109 3107 3102 3099 3096 3092 3089 3088 3085 3082 3081 3079 3078 3076 3074 3073 3071 3068 3066 3064 3060 3058 3056 3056 3055 3054 3053 3053 3051 3049 3046 3048 3047 3043 3039 3035 3030